KFHRCYCD

Guest
Details From KFHR - FRIDAY HARBOR
To CYCD - Nanaimo
Flight Number -
Tags generated
Created
Modified
Stats Distance 46 nm / 86 km
Max Altitude 2,600 ft / 792 m
Waypoints 3
Social Downloads 0
Likes 0
Share

Download

Looking for another format? Having issues loading an existing format? Contact us
Advertisement - Login to hide

Notes

Basic altitude profile: - Ascent Rate: 2500ft/min - Ascent Speed: 250kts - Cruise Altitude: 35000ft - Cruise Speed: 420kts - Descent Rate: 1500ft/min - Descent Speed: 250kts Options: - Use NATs: yes - Use PACOTS: yes - Use low airways: yes - Use high airways: yes

Route

KFHR IMPOR CYCD

ID Type Via Altitude (ft/m) Position (lat/lon) Dist (leg/tot) Name
O KFHR APT - 0 / 0 48.52197 / -123.02437 - / 0 nm FRIDAY HARBOR
IMPOR FIX - 2,600 / 792 48.62794 / -123.12540 7 / 7 nm
O CYCD APT - 0 / 0 49.05237 / -123.87011 38 / 46 nm Nanaimo

Altitude Profile

Advertisement - Login to hide

KFHR

Details ICAO KFHR (FRD)
Name FRIDAY HARBOR
Region United States
Timezone America/Los_Angeles (UTC-7.0)
Stats Elevation 113 ft / 34 m (AMSL)
Location 48.522000° -123.024000°
Runways 1
Magnetic Variation 15.643° E

METAR

KFHR 240153Z AUTO 36005KT 10SM FEW011 BKN032 OVC060 06/04 A2989 RMK AO2 RAE29 SLP123 P0001 T00560044 TSNO

Decode

TAF

Not found

Departure Runways

ID Width Length Bearing (true/mag) Surface Threshold Overrun Markings Lighting
16 75 ft / 23 m 3,402 ft / 1,037 m 177.06° / 161.41° ASPHALT 0 ft / 0 m 0 ft / 0 m VISUAL EDGE THRESHOLD
34 75 ft / 23 m 3,402 ft / 1,037 m 357.06° / 341.41° ASPHALT 0 ft / 0 m 0 ft / 0 m VISUAL EDGE THRESHOLD REIL-OMNI

CYCD

Details ICAO CYCD (YCD)
Name Nanaimo
Region Canada
Timezone America/Vancouver (UTC-7.0)
Stats Elevation 89 ft / 27 m (AMSL)
Location 49.054600° -123.870000°
Runways 1
Magnetic Variation 15.898° E

METAR

CYCD 240211Z 26005KT 3SM BR SCT006 BKN015 OVC027 05/05 A2994 RMK SF4SC2SC2 VIS HIER N SLP139

Decode

TAF

TAF AMD TAF AMD CYCD 240214Z 2402/2404 29005KT 4SM BR SCT006 BKN015 OVC030 TEMPO 2402/2404 1SM -RA BR OVC006 RMK NXT FCST WILL BE ISSUED AT 241445Z

Decode

Destination Runways

ID Width Length Bearing (true/mag) Surface Threshold Overrun Markings Lighting
16 150 ft / 46 m 6,602 ft / 2,012 m 180.86° / 164.96° ASPHALT 197 ft / 60 m 0 ft / 0 m APP EDGE THRESHOLD ODALS
34 150 ft / 46 m 6,602 ft / 2,012 m 0.86° / 344.96° ASPHALT 997 ft / 304 m 0 ft / 0 m APP EDGE THRESHOLD

Approach Navaids

Runway Type Ident Frequency Range Bearing (true/mag) Slope Elevation
16 LOC-ILS ICD 110.35 MHz 18 nm / 33 km 180.86° / 164.96 ° - 90 ft / 27 m (AMSL)
16 GS ICD 110.35 MHz 10 nm / 19 km 180.86° / 164.96 ° 3.00° 90 ft / 27 m (AMSL)